[[{"header":{"parameterUnit":"m.s-1","parameterCategory":1,"la1":30.2991,"la2":30.254,"lo1":-89.0895,"lo2":-89.0444,"dy":0.0017,"dx":0.0017,"nx":28,"ny":28,"refTime":"2024-05-27T03:00:00:Z","depth":0,"parameterNumber":2,"parameterNumberName":"U-component_of_WINDS"},"data":[0,0,0,0,0,0,0,0,0,0,0,0,0,0,0,0,0,0,0,0,0,0,0,0,0,0,0,0,0,0,0,0,0,0,0,0,0,0,0,0,0,0,0,0,0,0,0,0,0,0,0,0,0,0,0,0,0,0,0.3114,0.3115,0,0.3205,0.3206,0.3207,0.3158,0.3155,0.3153,0.315,0.3249,0.3254,0.3259,0,0,0,0,0,0,0,0,0,0,0,0,0,0.29,0.2904,0.3114,0.3115,0.3116,0.3205,0.3206,0.3207,0.3158,0.3155,0.3152,0.3149,0.3247,0.3253,0.3259,0,0,0,0,0,0,0,0,0,0,0,0,0,0.2992,0.2906,0.3114,0.3102,0.3102,0.3204,0.3206,0.3208,0.3159,0.3155,0.3151,0.3148,0.3245,0.3252,0.326,0.3381,0,0,0.3282,0.3286,0,0,0,0,0,0,0,0,0.2987,0.3,0.3103,0.3103,0.3103,0.3166,0.3167,0.3266,0.316,0.3137,0.315,0.3146,0.3225,0.3233,0.3259,0.3385,0.3389,0.3283,0.3288,0.3291,0.3293,0,0,0,0,0,0,0,0.2981,0.2996,0.315,0.3104,0.3104,0.3093,0.3102,0.3185,0.3201,0.3139,0.3135,0.3147,0.3224,0.3252,0.3261,0.3391,0.3283,0.329,0.3294,0.3297,0.3619,0.3623,0,0,0,0,0,0,0.2975,0.2991,0.3147,0.3153,0.3034,0.31,0.311,0.315,0.32,0.3204,0.315,0.3144,0.3241,0.3252,0.3264,0.3408,0.3291,0.3298,0.3302,0.3615,0.362,0.3624,0,0,0,0,0,0,0.297,0.2989,0.3143,0.3071,0.309,0.3108,0.3152,0.3153,0.3181,0.3208,0.3211,0.3175,0.3239,0.3254,0.3351,0.3411,0.3301,0.3308,0.361,0.3617,0.3622,0.3697,0,0,0,0,0,0,0.2964,0.2988,0.3033,0.3072,0.3094,0.3228,0.3156,0.3158,0.3193,0.3187,0.3233,0.3237,0.3237,0.334,0.3359,0.3419,0.3314,0.3605,0.3613,0.362,0.369,0.3705,0.3719,0,0,0,0,0,0.2957,0.3052,0.3036,0.3055,0.3151,0.3232,0.3244,0.3241,0.3198,0.3245,0.3262,0.3235,0.3401,0.3351,0.3371,0.3435,0.3601,0.3611,0.362,0.3683,0.3702,0.3718,0,0,0,0,0,0,0.3022,0.3057,0.304,0.315,0.3188,0.3223,0.3282,0.3261,0.3314,0.3305,0.33,0.3311,0.3412,0.3433,0.3377,0.3553,0.3495,0.3508,0.3536,0.3554,0.3569,0.3562,0.332,0,0,0,0,0,0.3049,0.3111,0.3138,0.3233,0.3253,0.3264,0.3299,0.3293,0.3333,0.3349,0.3373,0.3414,0.3475,0.3516,0.3574,0.3692,0.3701,0.3745,0.376,0.3772,0.3784,0.3847,0.3867,0.3655,0.3655,0.3655,0,0,0.3106,0.3133,0.3173,0.3247,0.3276,0.334,0.3278,0.335,0.3398,0.3361,0.3453,0.3472,0.3518,0.3626,0.3675,0.3646,0.3844,0.3783,0.3792,0.3799,0.3858,0.3878,0.3896,0.3661,0.366,0.3659,0,0,0.3243,0.3269,0.3351,0.338,0.3423,0.3429,0.3449,0.3487,0.3497,0.359,0.3563,0.362,0.3726,0.3759,0.3789,0.3935,0.3913,0.3955,0.4031,0.4092,0.4109,0.4124,0.4176,0.4194,0.3966,0.3967,0.3967,0,0.3309,0.3404,0.3396,0.3468,0.3502,0.3468,0.3551,0.358,0.3641,0.3665,0.3632,0.3762,0.3791,0.3905,0.394,0.3966,0.3989,0.395,0.4107,0.4122,0.4135,0.4185,0.4204,0.3971,0.3971,0.397,0.397,0,0.3483,0.3549,0.3609,0.3666,0.3706,0.3784,0.3788,0.383,0.3819,0.3829,0.3924,0.3956,0.4019,0.4045,0.4037,0.4158,0.4139,0.4107,0.4048,0.416,0.4207,0.4226,0.3978,0.3976,0.3975,0.3974,0,0,0.3665,0.3714,0.3737,0.3761,0.3805,0.3857,0.3933,0.3992,0.4028,0.407,0.4134,0.4222,0.4192,0.4226,0.4221,0.4275,0.4388,0.4236,0.4236,0.4263,0.4523,0.4547,0.4569,0.4373,0.4376,0.4379,0.4519,0,0.3805,0.3935,0.3929,0.4051,0.4112,0.408,0.4146,0.418,0.4191,0.4245,0.4257,0.432,0.4275,0.4295,0.4347,0.4363,0.444,0.4353,0.4432,0.4435,0.4422,0.4594,0.462,0.4751,0.4537,0.454,0.4542,0,0.3985,0.4031,0.4159,0.4192,0.4218,0.4277,0.433,0.4381,0.442,0.4423,0.4461,0.4446,0.4523,0.4461,0.4567,0.4508,0.454,0.4552,0.4557,0.4565,0.4496,0.4606,0.4793,0.4812,0.4571,0.4569,0.4567,0,0.4105,0.4199,0.4287,0.431,0.4351,0.4393,0.4412,0.4446,0.4482,0.4528,0.4551,0.4607,0.4638,0.4682,0.4683,0.4638,0.479,0.4728,0.4796,0.4796,0.483,0.4828,0.5024,0.485,0.485,0.485,0.4849,0,0.4262,0.4341,0.4341,0.4396,0.4484,0.4476,0.4563,0.4578,0.4609,0.4666,0.4642,0.4697,0.4694,0.475,0.4751,0.4838,0.4853,0.4858,0.4858,0.4861,0.486,0.4882,0.4873,0.4855,0.4854,0.4853,0.4852,0,0.4411,0.4414,0.4508,0.4538,0.4548,0.4611,0.4637,0.4689,0.4697,0.4769,0.4786,0.4799,0.4862,0.4867,0.4942,0.4942,0.5048,0.5037,0.5034,0.5033,0.51,0.5093,0.5317,0.5346,0.5153,0.5155,0.5157,0,0.4511,0.4571,0.4606,0.4642,0.4663,0.4721,0.4756,0.475,0.4788,0.4835,0.4881,0.4942,0.4991,0.5094,0.5111,0.5167,0.5158,0.5232,0.5166,0.5167,0.5159,0.5155,0.5161,0.5246,0.5248,0.525,0.5251,0,0.4688,0.4685,0.4736,0.4788,0.483,0.4871,0.4908,0.4939,0.4938,0.4982,0.5045,0.5082,0.5157,0.5218,0.5272,0.5293,0.5272,0.5271,0.529,0.5294,0.5289,0.5292,0.5069,0.5266,0.5265,0.5264,0.5263,0.5262,0.4815,0.4866,0.4899,0.4956,0.4983,0.5018,0.5068,0.508,0.5133,0.5192,0.5185,0.5256,0.5291,0.5362,0.5387,0.5442,0.5417,0.5444,0.5451,0.5458,0.5465,0.528,0.5452,0.5452,0.5451,0.5451,0.5451,0,0.499,0.5009,0.5061,0.5113,0.5158,0.5132,0.5172,0.5212,0.5274,0.5308,0.5355,0.5427,0.5486,0.5506,0.5562,0.5603,0.5595,0.5618,0.5615,0.562,0.5484,0.5462,0.5624,0.5624,0.5624,0.5624,0.5623,0.5623,0.5087,0.5171,0.5173,0.5271,0.5289,0.5357,0.5381,0.5414,0.5441,0.5522,0.557,0.5581,0.561,0.5668,0.572,0.5724,0.5747,0.5774,0.5775,0.5647,0.563,0.5613,0.5593,0.5779,0.5779,0.5906,0.5907,0.5908]},{"header":{"parameterUnit":"m.s-1","parameterCategory":1,"la1":30.2991,"la2":30.254,"lo1":-89.0895,"lo2":-89.0444,"dy":0.0017,"dx":0.0017,"nx":28,"ny":28,"refTime":"2024-05-27T03:00:00:Z","depth":0,"parameterNumber":3,"parameterNumberName":"V-component_of_WINDS"},"data":[0,0,0,0,0,0,0,0,0,0,0,0,0,0,0,0,0,0,0,0,0,0,0,0,0,0,0,0,0,0,0,0,0,0,0,0,0,0,0,0,0,0,0,0,0,0,0,0,0,0,0,0,0,0,0,0,0,0,2.2405,2.2405,0,2.2367,2.2367,2.2367,2.2361,2.2361,2.2361,2.2362,2.2318,2.2317,2.2315,0,0,0,0,0,0,0,0,0,0,0,0,0,2.2467,2.2466,2.2405,2.2405,2.2404,2.2367,2.2367,2.2366,2.236,2.2361,2.2361,2.2362,2.2319,2.2317,2.2315,0,0,0,0,0,0,0,0,0,0,0,0,0,2.2436,2.2466,2.2405,2.2397,2.2396,2.2368,2.2367,2.2366,2.236,2.2361,2.2361,2.2362,2.2319,2.2317,2.2315,2.2291,0,0,2.2308,2.2307,0,0,0,0,0,0,0,0,2.2438,2.2434,2.2399,2.2397,2.2396,2.2369,2.2373,2.2341,2.236,2.2374,2.2362,2.2362,2.2335,2.2331,2.2323,2.2289,2.2287,2.2308,2.2307,2.2306,2.2305,0,0,0,0,0,0,0,2.244,2.2435,2.239,2.2398,2.2397,2.2394,2.239,2.2367,2.2351,2.2373,2.2372,2.2368,2.2334,2.2325,2.2322,2.2287,2.2308,2.2306,2.2305,2.2304,2.223,2.2229,0,0,0,0,0,0,2.2444,2.2437,2.2391,2.2389,2.2419,2.2392,2.2388,2.2377,2.2352,2.2348,2.2368,2.2368,2.2328,2.2324,2.232,2.229,2.2306,2.2304,2.2302,2.223,2.223,2.2229,0,0,0,0,0,0,2.2446,2.244,2.2393,2.2413,2.2407,2.239,2.2379,2.2376,2.2367,2.2348,2.2345,2.2361,2.2329,2.2323,2.2298,2.2288,2.2303,2.2301,2.2231,2.223,2.2229,2.2229,0,0,0,0,0,0,2.2447,2.2441,2.2433,2.2413,2.2406,2.2373,2.2378,2.2375,2.2364,2.2364,2.2341,2.2338,2.2329,2.2302,2.2296,2.2285,2.2299,2.2232,2.2231,2.223,2.223,2.2228,2.2227,0,0,0,0,0,2.245,2.2433,2.2432,2.2427,2.2395,2.2373,2.2368,2.2359,2.2363,2.2354,2.2342,2.2339,2.229,2.2299,2.2293,2.2281,2.2233,2.2231,2.223,2.223,2.2228,2.2227,0,0,0,0,0,0,2.2451,2.243,2.2429,2.2406,2.2391,2.2372,2.236,2.2357,2.234,2.234,2.2328,2.2323,2.2298,2.2287,2.2298,2.2256,2.2262,2.2259,2.2264,2.2262,2.2261,2.2263,2.2297,0,0,0,0,0,2.2448,2.2433,2.2416,2.2397,2.239,2.2376,2.2366,2.236,2.2344,2.2337,2.2323,2.2305,2.2286,2.2273,2.2255,2.2228,2.2222,2.2217,2.2215,2.2214,2.2212,2.2196,2.2193,2.2224,2.2224,2.2224,0,0,2.2443,2.243,2.2421,2.2397,2.2385,2.2367,2.2371,2.2353,2.2339,2.2333,2.2309,2.2298,2.2278,2.2252,2.224,2.2242,2.2202,2.2212,2.2212,2.2209,2.2194,2.2191,2.2188,2.2223,2.2223,2.2224,0,0,2.2425,2.2414,2.2397,2.2385,2.2367,2.2358,2.2354,2.2335,2.2327,2.2303,2.2299,2.2282,2.2249,2.2235,2.2223,2.2199,2.2195,2.2193,2.2185,2.2169,2.2167,2.2164,2.2155,2.2152,2.2191,2.2191,2.2191,0,2.242,2.2396,2.2388,2.237,2.2359,2.2355,2.2336,2.2324,2.23,2.2292,2.2295,2.2254,2.224,2.221,2.2205,2.2196,2.2189,2.2195,2.2168,2.2166,2.2163,2.2154,2.215,2.2191,2.2191,2.2191,2.2191,0,2.239,2.2373,2.2361,2.234,2.2327,2.2309,2.2297,2.2285,2.2281,2.2271,2.2246,2.2229,2.2207,2.2199,2.2194,2.2168,2.217,2.2171,2.2176,2.216,2.2151,2.2147,2.219,2.2191,2.2191,2.2191,0,0,2.2371,2.2346,2.2341,2.2331,2.2311,2.2297,2.2278,2.2258,2.2247,2.2231,2.2214,2.2186,2.2187,2.2174,2.2166,2.2153,2.2134,2.2155,2.2155,2.2151,2.2103,2.2102,2.2098,2.2132,2.2131,2.213,2.2104,0,2.2349,2.2317,2.231,2.2281,2.2265,2.226,2.2244,2.2228,2.2219,2.2202,2.2191,2.2171,2.2174,2.2166,2.2152,2.2139,2.2124,2.2141,2.2114,2.2113,2.2118,2.2094,2.2093,2.2069,2.2101,2.21,2.21,0,2.232,2.2304,2.2275,2.2257,2.2249,2.2235,2.2215,2.22,2.2182,2.2175,2.2161,2.2155,2.2134,2.2141,2.211,2.2122,2.211,2.2102,2.21,2.2097,2.2105,2.2088,2.2061,2.2057,2.2094,2.2095,2.2095,0,2.2308,2.2279,2.2258,2.2249,2.2228,2.2217,2.2207,2.219,2.2178,2.2161,2.2152,2.2132,2.212,2.2103,2.2092,2.2098,2.2061,2.2067,2.2054,2.2054,2.2046,2.2046,2.2015,2.204,2.204,2.204,2.204,0,2.2284,2.2266,2.2252,2.2239,2.2218,2.2209,2.2188,2.2177,2.2162,2.2146,2.214,2.2124,2.211,2.2092,2.2082,2.2057,2.2052,2.2045,2.2043,2.2045,2.2046,2.2037,2.2038,2.2039,2.2039,2.2039,2.204,0,2.2266,2.2257,2.2233,2.2215,2.221,2.2195,2.2178,2.2164,2.2155,2.2134,2.2128,2.2112,2.209,2.2077,2.2049,2.2043,2.2015,2.2013,2.2021,2.202,2.2007,2.2008,2.1968,2.1962,2.1992,2.1991,2.1991,0,2.2252,2.2238,2.2218,2.2208,2.2198,2.2181,2.2169,2.2159,2.2146,2.2125,2.2113,2.2091,2.2073,2.2038,2.2023,2.2001,2.1999,2.1986,2.1995,2.1998,2.1997,2.1998,2.1996,2.1984,2.1984,2.1984,2.1984,0,2.2226,2.2222,2.2206,2.2188,2.2174,2.2159,2.2143,2.2134,2.2122,2.2107,2.2086,2.2072,2.2044,2.2022,2.1999,2.1987,2.1982,2.1981,2.1977,2.1979,2.1984,2.198,2.2016,2.1982,2.1982,2.1982,2.1982,2.1982,2.2209,2.2196,2.218,2.2162,2.215,2.2136,2.2122,2.2111,2.2093,2.2071,2.2066,2.2043,2.2024,2.1993,2.198,2.1961,2.1963,2.1956,2.1955,2.1953,2.1952,2.1988,2.1957,2.1957,2.1957,2.1957,2.1957,0,2.2182,2.2172,2.2155,2.2135,2.212,2.212,2.2102,2.209,2.207,2.2054,2.2037,2.2011,2.199,2.1973,2.1951,2.1938,2.1935,2.1932,2.1933,2.193,2.1952,2.1958,2.1935,2.1935,2.1935,2.1935,2.1935,2.1935,2.2166,2.2145,2.2138,2.211,2.2099,2.2078,2.2068,2.2055,2.2042,2.2014,2.1997,2.1987,2.197,2.1946,2.1926,2.1921,2.1913,2.191,2.1905,2.1926,2.1928,2.193,2.1936,2.1908,2.1908,2.1883,2.1883,2.1883]}]]